Location: Bonn
(50.7330°N, 7.1000°E)
Time: 07:15:50
(UTC+01:00)

Daily predictions for brighter satellites

Satellite Brightness Start Highest point End
(mag) Time Altitude Azimuth Time Altitude Azimuth Time Altitude Azimuth
Cosmos 405 2.9 19:20:40 10° S 19:24:11 76° E 19:27:43 10° NNE
Spot 2 Rocket 3.6 19:19:25 10° SSE 19:24:27 63° ENE 19:29:32 10° N
Cosmos 2123 Rocket 4.1 19:19:46 10° N 19:26:04 61° ENE 19:32:17 10° SSE
USA 267 3.7 19:21:46 10° E 19:28:08 56° N 19:34:29 10° WNW
Cosmos 2150 Rocket 4.1 19:23:48 10° S 19:28:47 53° ESE 19:33:49 10° NNE
Tiangong 1 3.5 19:30:03 10° SW 19:31:29 13° SSW 19:32:54 10° SSE
Cosmos 1812 Rocket 3.6 19:27:35 10° S 19:31:54 56° E 19:36:12 10° NNE
In-Cosmos 22 4.2 19:27:17 10° N 19:32:36 58° ENE 19:37:48 10° SSE
Cosmos 2344 3.9 19:26:26 10° S 19:33:41 47° ESE 19:41:58 10° NE
GP-B 4.2 19:31:13 10° SE 19:34:46 24° ENE 19:38:20 10° NNE
Resurs 01 Rocket 1.6 19:32:36 10° SSE 19:37:01 82° ENE 19:41:28 10° NNW
Cosmos 990 Rocket 4.2 19:33:06 10° S 19:38:09 50° ESE 19:43:13 10° NNE
Cosmos 1844 Rocket 2.7 19:33:45 10° SSW 19:39:23 76° ESE 19:45:02 10° NNE
BREEZE-M DEB (TANK) 1.8 19:36:55 10° W 19:39:25 72° S 19:41:33 13° E
Cosmos 1898 Rocket 3.5 19:34:15 10° SSW 19:39:33 81° ESE 19:44:52 10° NNE
Abrixas 3.3 19:36:54 10° W 19:39:35 37° SSW 19:42:03 11° SE
Cosmos 1076 Rocket 4.1 19:36:05 10° N 19:40:02 36° ENE 19:43:58 10° SE
Cosmos 1674 3.9 19:37:04 10° NNE 19:40:09 23° ENE 19:43:05 11° ESE
Cosmos 2228 4.2 19:37:56 10° SSW 19:42:02 47° WNW 19:46:11 10° N
Envisat 3.6 19:37:48 10° SE 19:42:27 38° ENE 19:47:08 10° N
Cosmos 1766 Rocket 4.5 19:38:58 10° N 19:42:58 31° ENE 19:46:56 10° SE
Cosmos 2084 Rocket 3.4 19:39:23 10° SW 19:43:24 74° NW 19:47:16 10° NE
CZ-2D R/B 3.2 19:39:49 10° SSE 19:43:41 70° ENE 19:47:34 10° N
ALOS 2.9 19:39:17 10° S 19:43:54 61° W 19:48:33 10° NNW
Timation 2 Rocket 4.4 19:37:53 10° NNW 19:44:07 47° NE 19:49:51 11° ESE
Cosmos 1833 Rocket 3.1 19:39:23 10° NNW 19:44:48 45° NE 19:49:59 11° ESE
USA 186 1.3 19:44:02 10° SSE 19:46:12 41° ENE 19:48:21 10° N
Cosmos 1048 Rocket 4.3 19:42:16 10° NNW 19:47:15 47° ENE 19:52:10 10° SE
Cosmos 1805 3.9 19:46:01 10° SSE 19:49:32 33° E 19:53:05 10° NNE
Cosmos 2278 Rocket 2.5 19:45:23 10° S 19:50:43 44° ESE 19:56:05 10° NE
Geosat 4.4 19:47:19 10° NE 19:52:05 41° ESE 19:56:49 10° S
Helios 1B rocket 3.1 19:49:49 10° NNE 19:53:35 33° E 19:57:19 10° SSE
Cosmos 1437 Rocket 3.1 19:49:52 10° SSW 19:53:53 75° WNW 19:58:00 10° N
Cosmos 1340 Rocket 4.0 19:53:56 10° N 19:57:22 26° ENE 19:59:28 17° ESE
Helios 1A 2.9 19:58:57 10° SSE 20:03:07 78° ENE 20:07:19 10° NNW
Cosmos 1470 4.1 20:02:05 18° ESE 20:03:20 21° E 20:06:19 10° NE
Meteor 1-24 Rocket 4.4 19:58:39 10° NNW 20:03:58 57° W 20:09:26 10° S
Cosmos 1447 Rocket 4.4 19:59:13 10° N 20:05:21 68° ENE 20:11:27 10° SSE
Lacrosse 5 2.3 20:00:46 10° SSW 20:05:27 39° SE 20:10:10 10° ENE
Cosmos 2263 Rocket 4.4 20:01:09 10° W 20:05:50 26° NW 20:10:31 10° NNE
YAOGAN 6 3.9 20:05:10 19° ESE 20:06:38 25° ENE 20:09:45 10° N
ERS-1 Rocket 3.6 20:03:29 16° ESE 20:07:02 36° ENE 20:11:37 10° N
Cosmos 1818 3.6 20:02:22 10° NW 20:07:51 83° SW 20:12:46 13° SE
SAR-Lupe-4 3.6 20:04:27 10° SSE 20:08:02 85° WSW 20:11:39 10° NNW
Lacrosse 4 Rocket 1.5 20:04:06 10° SW 20:08:09 73° NW 20:12:14 10° NNE
Spot 1 4.3 20:04:09 10° SSE 20:08:49 89° ENE 20:13:48 10° NNW
Cosmos-2242 4.0 20:06:23 16° SE 20:08:51 26° E 20:12:25 10° NNE
Cosmos 1937 Rocket 3.7 20:06:03 10° SSW 20:11:19 79° WNW 20:16:40 10° NNE
SPOT 5 4.2 20:10:13 18° E 20:12:51 26° ENE 20:17:13 10° N
Cosmos 1743 Rocket 4.4 20:10:55 10° N 20:14:52 31° ENE 20:16:43 23° ESE
CZ-4B DEB 2.5 20:12:31 15° SSE 20:15:01 75° ENE 20:18:08 10° N
Cosmos 2082 Rocket 2.2 20:10:05 10° NNW 20:15:50 77° ENE 20:20:30 16° SE
Cosmos 1459 Rocket 4.5 20:11:08 10° SSE 20:16:47 37° E 20:22:23 10° NNE
Cosmos 1758 3.3 20:14:29 10° S 20:18:23 59° E 20:22:20 10° NNE
Cosmos 2173 Rocket 4.5 20:14:07 10° SSE 20:19:44 38° E 20:25:27 10° NNE
NOSS 2 (F) 4.4 20:17:50 10° NW 20:20:38 83° SW 20:21:55 31° SE
Cosmos 1269 Rocket 4.0 20:15:29 10° NNW 20:20:49 83° ENE 20:25:19 14° SSE
H-2A R/B 4.1 20:21:36 11° ENE 20:21:58 11° NE 20:23:17 10° NE
Cosmos 1733 4.0 20:23:38 28° ESE 20:24:18 30° E 20:27:45 10° NNE
Cosmos 1934 Rocket 4.4 20:18:28 10° SSW 20:24:33 65° WNW 20:30:37 10° N
Cosmos 1939 Rocket 2.8 20:24:30 17° SSE 20:27:36 73° ENE 20:31:47 10° N
Cosmos 1953 2.2 20:24:05 10° S 20:28:07 69° E 20:32:11 10° NNE
Cosmos 1184 Rocket 3.9 20:25:35 10° N 20:28:34 28° ENE 20:28:37 28° ENE
ATLAS CENTAUR R/B 2.9 20:30:11 10° NNW 20:31:03 12° N 20:31:06 12° N
SL-14 R/B 4.2 20:27:58 10° N 20:31:20 27° ENE 20:31:35 27° ENE
Cosmos 2098 Rocket 4.4 20:24:49 10° S 20:32:04 77° E 20:39:41 10° NNE
Meteor 1-29 2.8 20:30:34 10° NNE 20:34:03 70° ESE 20:37:31 10° S
USA 215 3.6 20:29:11 10° ENE 20:35:19 41° SE 20:41:24 10° SSW
Meteor 1-4 Rocket 2.3 20:31:56 10° S 20:35:24 78° E 20:38:54 10° NNE
Cosmos 482 Debris 4.3 20:33:43 10° W 20:34:51 29° W 20:34:51 29° W
COSMOS 2487 2.5 20:33:01 10° NNW 20:36:37 78° WSW 20:38:18 29° SSE
Cosmos 1408 Rocket 3.6 20:33:42 10° N 20:38:12 86° W 20:41:49 16° S
Cosmos 1544 3.3 20:35:18 10° SSW 20:38:55 69° WNW 20:42:37 10° N
Terra 3.6 20:41:49 15° ENE 20:42:17 15° NE 20:45:02 10° NNE
Cosmos 1844 4.5 20:36:49 10° SW 20:42:30 55° NW 20:48:14 10° NNE
ARGOS 3.7 20:43:18 30° ESE 20:45:06 40° ENE 20:50:04 10° N
Lacrosse 5 rocket 1.0 20:43:05 10° WNW 20:47:06 88° SSW 20:48:00 51° SE
Timation 1 Rocket 4.3 20:41:12 10° SSW 20:47:09 65° ESE 20:53:07 10° NE
Cosmos 1867 3.9 20:42:17 10° S 20:47:23 42° ESE 20:52:33 10° NE
MetOp-A 4.3 20:46:48 32° SE 20:49:06 56° ENE 20:54:21 10° N
Cosmos 2016 Rocket 4.2 20:47:27 24° SSE 20:50:57 47° E 20:56:48 10° NNE
CZ-3B DEB 2.1 20:42:17 10° WSW 20:51:20 83° SSE 20:53:50 27° ENE
Cosmos 1356 Rocket 3.6 20:48:49 10° N 20:52:52 47° ENE 20:53:13 46° E
Cosmos 1842 Rocket 4.4 20:53:49 33° ENE 20:53:49 33° ENE 20:57:10 10° NNE
YAOGAN 11 4.2 20:52:42 41° SE 20:54:02 60° ENE 20:58:32 10° N
Cosmos 1271 Rocket 2.7 20:54:27 46° SSE 20:55:25 63° E 20:59:26 10° NNE
Cosmos 372 Rocket 3.9 20:51:18 10° S 20:56:19 61° ESE 21:01:26 10° NNE
Cosmos 1725 Rocket 4.5 20:56:11 34° ESE 20:57:28 38° E 21:03:06 10° NNE
Cosmos 2100 Rocket 3.9 20:57:22 10° S 21:03:41 82° E 21:10:06 10° NNE
Tsikada Rocket 4.1 20:58:25 10° N 21:04:30 54° ENE 21:06:27 39° SE
Fregat R/B Cluster 11 3.8 21:05:06 10° SW 21:09:36 87° SE 21:13:02 10° NE
USA 267 3.2 21:08:04 37° ESE 21:10:57 88° SSW 21:17:32 10° WNW
GP-B 4.3 21:07:39 10° SSW 21:11:52 42° W 21:16:07 10° NNW
H-2A R/B 2.6 21:12:48 41° E 21:13:27 42° ENE 21:18:27 10° N
Cosmos 494 Rocket 3.8 21:09:27 10° NNW 21:14:37 78° ENE 21:15:43 55° SE
Cosmos 2151 3.0 21:10:38 10° N 21:14:46 62° ENE 21:14:46 62° ENE
Cosmos 1674 4.3 21:12:26 10° NNW 21:15:50 32° W 21:18:03 18° SW
Envisat 4.4 21:16:51 10° SSW 21:21:30 36° W 21:26:12 10° NNW
Cosmos 2058 3.2 21:17:45 10° N 21:21:19 53° NE 21:21:19 53° NE
Cosmos 1802 Rocket 3.9 21:16:59 16° S 21:22:03 88° E 21:28:16 10° N
USA 245 4.2 21:25:53 56° SE 21:27:01 73° ENE 21:33:03 10° N
Cosmos 1833 Rocket 3.8 21:23:32 10° NW 21:28:40 38° WSW 21:31:42 21° SSW
SL-08 RB Rocket 3.7 21:28:50 68° ENE 21:28:50 68° ENE 21:33:31 10° N
Helios 1B rocket 4.4 21:25:13 10° N 21:28:51 30° WNW 21:32:27 10° SW
Cosmos 1125 Rocket 4.0 21:24:55 10° SW 21:30:03 59° WNW 21:35:15 10° NNE
Cosmos 2061 Rocket 4.2 21:25:10 10° SSW 21:31:34 76° W 21:38:03 10° N
NOAA 11 4.2 21:31:23 46° S 21:33:05 76° WSW 21:38:38 10° NNW
Cosmos 1340 Rocket 4.3 21:30:14 10° NNW 21:33:55 34° W 21:35:08 27° SW
Cosmos 2278 Rocket 3.5 21:29:32 10° WSW 21:34:53 41° NW 21:40:15 10° NNE
Cosmos 1470 4.0 21:37:24 25° SW 21:39:12 40° WNW 21:42:59 10° N
YAOGAN 6 4.2 21:39:37 30° WSW 21:40:06 31° W 21:43:29 10° NNW
MetOp-B 4.5 21:41:41 44° SSW 21:43:12 61° WSW 21:48:32 10° NNW
Meteor 1-11 4.3 21:37:46 10° NNW 21:43:21 72° W 21:44:37 53° SSW
Cosmos 1816 Rocket 4.3 21:37:46 10° N 21:43:59 83° E 21:45:07 62° SSE
ERS-1 Rocket 4.2 21:43:28 24° SSW 21:45:48 37° W 21:50:30 10° NNW
Cosmos-2242 4.5 21:43:07 14° SW 21:46:18 35° WNW 21:50:15 10° N
Lacrosse 4 Rocket 4.3 21:45:02 10° WNW 21:47:36 16° NNW 21:50:10 10° N
Cosmos 2297 4.2 21:42:15 10° SW 21:47:54 60° NW 21:53:36 10° NNE
Cosmos 2344 4.4 21:40:17 10° WSW 21:48:01 58° NNW 21:57:37 10° NE
Lacrosse 5 2.1 21:43:14 10° WSW 21:48:18 66° NNW 21:49:30 49° NE
SPOT 5 3.4 21:49:27 51° SSW 21:50:32 62° WSW 21:55:51 10° NNW
ATLAS 5 CENTAUR R/B 4.4 22:00:44 10° NE 22:00:44 10° NE 22:00:49 10° NE
Nimbus 7 Rocket 4.2 21:50:34 10° NNE 21:56:28 76° ESE 21:56:31 76° ESE
Cosmos 1626 3.9 21:53:05 10° N 21:55:01 29° N 21:55:01 29° N
SPOT 1/Viking Rocket 3.5 21:56:47 74° SW 21:56:58 75° WSW 22:02:13 10° NNW
Cosmos 2251 Rocket 4.0 21:52:05 10° NNW 21:57:14 52° WSW 21:57:51 49° SW
H-2A R/B 3.1 21:58:43 40° N 21:58:43 40° N 22:01:25 10° NNW
Cosmos 1805 Rocket 4.4 21:54:12 10° N 21:57:18 44° N 21:57:18 44° N
Cosmos 2082 Rocket 4.2 21:55:09 10° NW 21:59:18 21° W 22:02:23 14° SW
Cosmos 2221 4.2 22:05:45 26° NNE 22:05:45 26° NNE 22:07:45 10° NNE
Landsat 7 4.2 22:04:56 60° N 22:04:56 60° N 22:08:51 10° NNW
Meteor 2-1 Rocket 4.2 22:06:28 74° NE 22:06:28 74° NE 22:11:41 10° NNE
Cosmos 2233 Rocket 3.9 22:07:06 72° ENE 22:07:06 72° ENE 22:12:55 10° NNE
USA 215 3.2 22:12:08 10° ENE 22:18:44 83° NNW 22:25:17 10° WSW
Terra 2.6 22:20:42 48° NNW 22:20:42 48° NNW 22:24:09 10° NNW
ARGOS 4.2 22:24:48 36° WSW 22:25:23 37° W 22:30:22 10° NNW
Lacrosse 5 rocket 4.1 22:23:14 10° W 22:23:43 12° W 22:23:43 12° W
Cosmos 1867 4.5 22:25:44 10° WSW 22:31:00 47° NW 22:36:19 10° NE
Cosmos 2297 Rocket 4.2 22:38:08 10° N 22:42:01 19° NNE 22:42:44 18° NE
H-2A R/B 3.4 22:53:26 34° W 22:53:26 34° W 22:57:50 10° NNW
USA 267 4.3 22:55:24 33° WSW 22:55:24 33° WSW 23:00:22 10° WNW
Cosmos 2369 Rocket 3.7 23:01:25 29° NNE 23:01:25 29° NNE 23:04:05 10° NNE
CZ-3B DEB 3.8 22:58:46 10° W 23:01:17 22° WNW 23:01:17 22° WNW
Cosmos 2227 Rocket 3.8 23:03:10 10° NNW 23:07:23 27° NNE 23:07:23 27° NNE
Lacrosse 5 4.1 23:27:06 10° WNW 23:28:46 20° WNW 23:28:46 20° WNW
Cosmos 1943 Rocket 3.9 23:42:05 26° NNE 23:42:05 26° NNE 23:44:30 10° NNE
ATLAS 5 CENTAUR R/B 3.8 23:42:10 28° N 23:42:10 28° N 23:45:41 10° NE
